Pleasanton, TX

8:10 AM CDT on September 27, 2016 (GMT -0500)
Pleasanton Municipal

Weather History for KPEZ - January, 2014

Change the Weather History Date:

Friday, January 31, 2014

  Actual Average Record
Temperature  
Mean Temperature 64 °F -  
Max Temperature 80 °F 66 °F 82 °F (2016)
Min Temperature 48 °F 38 °F 24 °F (2009)
Degree Days  
Heating Degree Days 1    
Growing Degree Days 14 (Base 50)    
Moisture  
Dew Point 54 °F    
Average Humidity 74    
Maximum Humidity 99    
Minimum Humidity 37    
Precipitation  
Precipitation 0.00 in - - ()
Sea Level Pressure  
Sea Level Pressure 29.88 in    
Wind  
Wind Speed 5 mph (SE)    
Max Wind Speed 15 mph    
Max Gust Speed 24 mph    
Visibility 9 miles    
Events Fog    
Averages and records for this station are not official NWS values.
T = Trace of Precipitation, MM = Missing Value Source: NWS Daily Summary

Daily Weather History Graph

Daily Weather History Graph

Search for Another Location

Airport or City:

Trip Planner

Search our weather history database for the weather conditions in past years. The results will help you decide how hot, cold, wet, or windy it might be!

Date:

Astronomy

Jan. 31, 2014 Rise Set
Actual Time 7:23 AM CST 6:12 PM CST
Civil Twilight 6:58 AM CST 6:37 PM CST
Nautical Twilight 6:30 AM CST 7:05 PM CST
Astronomical Twilight 6:01 AM CST 7:33 PM CST
Moon 7:42 AM CST (1/31) 7:27 PM CST (1/31)
Length of Visible Light 11h 38m
Length of Day
10h 49m
New Moon, 1% of the Moon is Illuminated
Jan 31
New Moon
Feb 6
First Quarter
Feb 14
Full
Feb 22
Last Quarter
Mar 1
New

Hourly Weather History & Observations

Time (CST) Temp. Heat Index Dew Point Humidity Pressure Visibility Wind Dir Wind Speed Gust Speed Precip Events Conditions
12:15 AM 51.1 °F - 50.0 °F 96% 29.94 in 10.0 mi Calm Calm - N/A   Clear
12:35 AM 50.5 °F - 49.3 °F 95% 29.94 in 4.0 mi Calm Calm - N/A   Clear
12:55 AM 49.8 °F - 48.9 °F 97% 29.93 in 5.0 mi ESE 3.5 mph - N/A   Clear
1:15 AM 49.6 °F - 48.7 °F 97% 29.93 in 5.0 mi East 3.5 mph - N/A   Clear
1:35 AM 48.9 °F - 48.2 °F 97% 29.93 in 1.0 mi East 3.5 mph - N/A   Mist
1:55 AM 49.3 °F - 48.6 °F 97% 29.92 in 2.5 mi East 3.5 mph - N/A   Clear
2:15 AM 49.1 °F - 48.4 °F 97% 29.92 in 2.0 mi East 3.5 mph - N/A   Clear
2:35 AM 49.8 °F - 49.1 °F 97% 29.91 in 4.0 mi Calm Calm - N/A   Clear
2:55 AM 48.7 °F - 48.0 °F 97% 29.91 in 0.2 mi East 3.5 mph - N/A Fog Fog
3:15 AM 48.4 °F - 47.5 °F 97% 29.90 in 0.5 mi ENE 3.5 mph - N/A Fog Fog
3:35 AM 48.9 °F - 48.4 °F 98% 29.90 in 2.5 mi Calm Calm - N/A   Mostly Cloudy
3:55 AM 50.4 °F - 50.0 °F 99% 29.91 in 5.0 mi Calm Calm - N/A   Overcast
4:15 AM 51.6 °F - 51.1 °F 98% 29.91 in 7.0 mi Calm Calm - N/A   Overcast
4:35 AM 52.2 °F - 51.8 °F 99% 29.91 in 7.0 mi Calm Calm - N/A   Overcast
4:55 AM 52.0 °F - 51.6 °F 99% 29.91 in 10.0 mi Calm Calm - N/A   Overcast
5:15 AM 52.2 °F - 51.8 °F 99% 29.91 in 10.0 mi ESE 3.5 mph - N/A   Overcast
5:35 AM 52.5 °F - 51.8 °F 97% 29.91 in 10.0 mi ESE 3.5 mph - N/A   Overcast
5:55 AM 52.7 °F - 52.2 °F 98% 29.91 in 10.0 mi ESE 3.5 mph - N/A   Overcast
6:15 AM 54.0 °F - 53.2 °F 97% 29.91 in 10.0 mi SE 3.5 mph - N/A   Overcast
6:35 AM 54.1 °F - 53.6 °F 98% 29.92 in 10.0 mi ESE 3.5 mph - N/A   Overcast
6:55 AM 54.5 °F - 53.6 °F 97% 29.93 in 10.0 mi SE 4.6 mph - N/A   Overcast
7:15 AM 54.1 °F - 52.9 °F 95% 29.93 in 10.0 mi ESE 3.5 mph - N/A   Scattered Clouds
7:35 AM 53.1 °F - 51.6 °F 95% 29.93 in 10.0 mi Calm Calm - N/A   Clear
7:55 AM 51.8 °F - 50.7 °F 96% 29.94 in 2.5 mi Calm Calm - N/A   Clear
8:15 AM 53.6 °F - 52.7 °F 97% 29.94 in 7.0 mi Calm Calm - N/A   Clear
8:35 AM 56.1 °F - 55.2 °F 97% 29.95 in 10.0 mi Calm Calm - N/A   Clear
8:55 AM 58.5 °F - 55.4 °F 90% 29.96 in 10.0 mi East 4.6 mph - N/A   Clear
9:15 AM 58.5 °F - 55.2 °F 89% 29.96 in 10.0 mi East 3.5 mph - N/A   Mostly Cloudy
9:35 AM 60.1 °F - 55.8 °F 86% 29.96 in 10.0 mi SSE 8.1 mph - N/A   Overcast
9:55 AM 61.3 °F - 55.4 °F 81% 29.97 in 10.0 mi South 11.5 mph - N/A   Overcast
10:15 AM 62.6 °F - 55.0 °F 76% 29.97 in 10.0 mi South 10.4 mph 18.4 mph N/A   Overcast
10:35 AM 65.1 °F - 55.4 °F 71% 29.97 in 10.0 mi South 9.2 mph - N/A   Mostly Cloudy
10:55 AM 66.4 °F - 55.6 °F 68% 29.96 in 10.0 mi SSE 10.4 mph 16.1 mph N/A   Scattered Clouds
11:15 AM 68.9 °F - 55.6 °F 62% 29.96 in 10.0 mi South 9.2 mph - N/A   Clear
11:35 AM 70.2 °F - 55.6 °F 60% 29.95 in 10.0 mi SSE 11.5 mph 17.3 mph N/A   Clear
11:55 AM 72.0 °F - 55.4 °F 56% 29.93 in 10.0 mi SE 10.4 mph - N/A   Clear
12:15 PM 73.9 °F - 54.7 °F 51% 29.92 in 10.0 mi SSE 12.7 mph 17.3 mph N/A   Clear
12:35 PM 74.5 °F - 54.1 °F 49% 29.91 in 10.0 mi ESE 9.2 mph 18.4 mph N/A   Clear
12:55 PM 76.3 °F - 53.8 °F 45% 29.90 in 10.0 mi SSE 9.2 mph 18.4 mph N/A   Clear
1:15 PM 77.4 °F - 53.4 °F 43% 29.88 in 10.0 mi SSE 9.2 mph 18.4 mph N/A   Clear
1:35 PM 77.9 °F - 53.1 °F 42% 29.87 in 10.0 mi SE 9.2 mph - N/A   Clear
1:55 PM 78.3 °F - 53.4 °F 42% 29.86 in 10.0 mi SE 12.7 mph - N/A   Clear
2:15 PM 79.0 °F - 52.9 °F 40% 29.85 in 10.0 mi SSE 10.4 mph 17.3 mph N/A   Clear
2:35 PM 79.7 °F - 52.9 °F 39% 29.83 in 10.0 mi SSE 11.5 mph 18.4 mph N/A   Clear
2:55 PM 79.7 °F - 53.4 °F 40% 29.82 in 10.0 mi SE 9.2 mph 19.6 mph N/A   Clear
3:15 PM 80.4 °F 80.1 °F 53.1 °F 39% 29.81 in 10.0 mi SE 11.5 mph 17.3 mph N/A   Clear
3:35 PM 79.9 °F - 53.1 °F 39% 29.80 in 10.0 mi SE 12.7 mph 19.6 mph N/A   Clear
3:55 PM 79.7 °F - 52.3 °F 39% 29.80 in 10.0 mi SE 13.8 mph - N/A   Clear
4:15 PM 80.4 °F - 52.7 °F 38% 29.79 in 10.0 mi SE 13.8 mph 18.4 mph N/A   Clear
4:35 PM 80.1 °F 79.9 °F 53.1 °F 39% 29.79 in 10.0 mi SE 9.2 mph 18.4 mph N/A   Clear
4:55 PM 80.1 °F - 51.3 °F 37% 29.79 in 10.0 mi SE 9.2 mph - N/A   Clear
5:15 PM 79.5 °F - 51.1 °F 37% 29.79 in 10.0 mi SE 10.4 mph 18.4 mph N/A   Clear
5:35 PM 78.6 °F - 50.2 °F 37% 29.79 in 10.0 mi SSE 9.2 mph 17.3 mph N/A   Clear
5:55 PM 77.4 °F - 51.3 °F 40% 29.79 in 10.0 mi SE 6.9 mph - N/A   Clear
6:15 PM 75.2 °F - 52.5 °F 45% 29.79 in 10.0 mi SE 12.7 mph 16.1 mph N/A   Clear
6:35 PM 73.9 °F - 54.0 °F 50% 29.79 in 10.0 mi ESE 8.1 mph - N/A   Clear
6:55 PM 72.9 °F - 54.1 °F 52% 29.80 in 10.0 mi ESE 8.1 mph - N/A   Clear
7:15 PM 71.6 °F - 59.0 °F 64% 29.80 in 10.0 mi ESE 15.0 mph 23.0 mph N/A   Clear
7:35 PM 70.2 °F - 59.4 °F 69% 29.81 in 10.0 mi ESE 11.5 mph 24.2 mph N/A   Clear
7:55 PM 69.1 °F - 59.2 °F 71% 29.81 in 10.0 mi ESE 10.4 mph - N/A   Clear
8:15 PM 68.2 °F - 59.0 °F 72% 29.82 in 10.0 mi ESE 12.7 mph 18.4 mph N/A   Clear
8:35 PM 67.3 °F - 58.6 °F 74% 29.83 in 10.0 mi ESE 11.5 mph 16.1 mph N/A   Clear
8:55 PM 66.6 °F - 59.0 °F 77% 29.84 in 10.0 mi ESE 11.5 mph 16.1 mph N/A   Clear
9:15 PM 65.5 °F - 59.0 °F 80% 29.85 in 10.0 mi SE 10.4 mph - N/A   Clear
9:35 PM 64.6 °F - 59.0 °F 82% 29.84 in 10.0 mi SE 6.9 mph - N/A   Clear
9:55 PM 63.9 °F - 59.2 °F 85% 29.84 in 10.0 mi ESE 6.9 mph - N/A   Clear
10:15 PM 63.3 °F - 59.4 °F 87% 29.84 in 10.0 mi ESE 8.1 mph - N/A   Clear
10:35 PM 62.8 °F - 59.2 °F 88% 29.83 in 10.0 mi ESE 9.2 mph - N/A   Clear
10:55 PM 63.3 °F - 59.9 °F 89% 29.84 in 10.0 mi ESE 10.4 mph - N/A   Mostly Cloudy
11:15 PM 63.7 °F - 59.9 °F 87% 29.84 in 10.0 mi SE 6.9 mph - N/A   Overcast
11:35 PM 63.7 °F - 59.9 °F 87% 29.84 in 10.0 mi SE 10.4 mph - N/A   Overcast
11:55 PM 64.4 °F - 60.3 °F 86% 29.84 in 10.0 mi SE 10.4 mph 16.1 mph N/A   Overcast